Other Public Products
Issued by NWS Grand Forks, ND

Home | Current Version | Previous Version | Text Only | Print | Product List | Glossary Off
Versions: 1 2 3 4 5 6 7 8 9 10 11 12 13 14 15 16 17 18 19 20 21 22 23 24 25 26 27 28 29 30 31 32 33 34 35 36 37 38 39 40 41 42 43 44 45 46 47 48 49 50

000
FPUS83 KFGF 271231
OPUFGF
PRAIRIE TO PINES WEATHER ROUNDUP
NATIONAL WEATHER SERVICE EASTERN NORTH DAKOTA/GRAND FORKS ND
600 AM CST FRI FEB 27 2015

 **SATELLITE DATA USED TO AUGMENT SKY COVER AT AUTOMATED STATIONS**
 *****  WEATHER ACROSS EASTERN NORTH DAKOTA  *****

CITY           SKY/WX    TMP DP  RH WIND       PRES   REMARKS
GRAND FORKS    FAIR     -11 -17  75 SW3       30.45R
6HR MIN TEMP: -16; 6HR MAX TEMP:  -7;

GRAND FORKS AF FAIR     -12 -19  71 W5        30.44S WCI -24
GRAND CITY NWS   N/A    -13 N/A N/A W3          N/A
BUXTON           N/A    -11 -14  86 SW9         N/A  WCI -29
DEVILS LAKE    FAIR     N/A N/A N/A MISG        N/A
FARGO          FAIR     -11 -17  75 S8        30.49S WCI -28
6HR MIN TEMP: -12; 6HR MAX TEMP:  -5;

WAHPETON ARPT  FAIR      -9 -17  70 W3        30.51S
$$

 *****  WEATHER ACROSS CENTRAL AND WESTERN NORTH DAKOTA  *****

CITY           SKY/WX    TMP DP  RH WIND       PRES   REMARKS
JAMESTOWN      FAIR     -12 -16  82 W3        30.41F
6HR MIN TEMP: -12; 6HR MAX TEMP:  -7;

BISMARCK       CLEAR    -13 -17  82 SE3       30.42F
6HR MIN TEMP: -15; 6HR MAX TEMP:  -6;

MINOT          FAIR      -9 -14  78 SW9       30.35S WCI -26
6HR MIN TEMP: -13; 6HR MAX TEMP:  -7;

MINOT AFB      FAIR     -12 -16  81 CALM      30.35F
6HR MIN TEMP: -15; 6HR MAX TEMP:  -8;

GARRISON         N/A    -15 -21  74 CALM      30.36S
6HR MIN TEMP: -16; 6HR MAX TEMP: -10;

WILLISTON        N/A    -14 -18  82 CALM      30.30F
6HR MIN TEMP: -16; 6HR MAX TEMP:  -8;

DICKINSON      CLEAR     -8 -14  74 S9        30.25F WCI -25
6HR MIN TEMP:  -8; 6HR MAX TEMP:  -3;

HETTINGER      CLEAR     -6 -11  79 SE7       30.28F WCI -20
6HR MIN TEMP: -11; 6HR MAX TEMP:  -3;

$$

 *****  OTHER OBSERVATIONS NORTHEAST NORTH DAKOTA  *****

CITY           SKY/WX    TMP DP  RH WIND       PRES   REMARKS
WALHALLA         N/A     -2 -13  60 W6        30.39S WCI -14
LANGDON        NOT AVBL
CAVALIER       FAIR      -2 -11  65 W9        30.40S WCI -18
GRAFTON        NOT AVBL
CANDO          FAIR     -15 -20  76 W8        30.38F WCI -32
FORT TOTTEN    NOT AVBL
ROLLA          FAIR     -13 -18  77 SW5       30.33S WCI -25
RUGBY          FAIR     -17 -20  83 SW7       30.38S WCI -33
 ***** THE ABOVE OBSERVATIONS ARE NON NWS ARE NOT QUALITY
        CONTROLLED AND MAY MIS-REPORT RAIN FOR SNOW...
$$

 *****  OTHER OBSERVATIONS SOUTHEAST NORTH DAKOTA *****

CITY           SKY/WX    TMP DP  RH WIND       PRES   REMARKS
COOPERSTOWN    NOT AVBL
VALLEY CITY    FAIR      -8 -13  77 NW9       30.42F WCI -25
OAKES            N/A    -13 -18  77 S8        30.47S WCI -30
GWINNER        SUNNY     -8 -15  71 SW8       30.48F WCI -23
SHEYENNE NWR     N/A    -15 -22  70 W6        29.95  WCI -29
BUFFALO        NOT AVBL
WYNDMERE         N/A    -11 -17  77 SW7         N/A  WCI -26
 ***** THE ABOVE OBSERVATIONS ARE NON NWS ARE NOT QUALITY
       CONTROLLED AND MAY MIS-REPORT RAIN FOR SNOW...
$$

  *****  WEATHER ACROSS NORTHERN MINNESOTA  *****

CITY           SKY/WX    TMP DP  RH WIND       PRES   REMARKS
FLAG ISLAND    FAIR     -15 -18  84 S3        30.34F
WARROAD        FAIR     -11 -17  77 SW5       30.37S WCI -23
ROSEAU         FAIR      -9 -17  70 SW8       30.38F WCI -26
HALLOCK        FAIR     -15 -20  76 S7        30.41S WCI -31
THF RVR FALLS  FAIR     -15 N/A N/A SW7       30.40S WCI -31
6HR MIN TEMP: -17; 6HR MAX TEMP:  -6;

HALSTAD          N/A    -12 -18  75 SW6         N/A  WCI -26
FOSSTON        FAIR     -18 -24  76 S6        30.42S WCI -33
BAUDETTE       FAIR     -14 -20  74 SW5       30.35S WCI -26
6HR MIN TEMP: -14; 6HR MAX TEMP:  -7;

WASKISH        FAIR     -17 -20  83 CALM      30.39S
CROOKSTON      FAIR     -15 -18  84 S5        30.46S WCI -27
$$
  *****  WEATHER ACROSS CENTRAL AND WEST MINNESOTA  *****

CITY           SKY/WX    TMP DP  RH WIND       PRES   REMARKS
BEMIDJI        FAIR     -14 -19  81 CALM      30.39S
PARK RAPIDS    FAIR     -15 -21  74 CALM      30.40S
6HR MIN TEMP: -16; 6HR MAX TEMP:  -9;

WADENA         FAIR     -13 -17  84 W5        30.44R WCI -25
DETROIT LAKES  FAIR      -9 -15  77 S3        30.44S
MOORHEAD       FAIR      -9 -13  84 SW5       30.49S WCI -21
FERGUS FALLS   FAIR     -11 -17  77 SW5       30.53S WCI -23
ELBOW LAKE     FAIR     -12 -16  84 SW5       30.48S WCI -24
6HR MIN TEMP: -14; 6HR MAX TEMP:  -6;

MORRIS MN      FAIR      -9 -15  77 W3        30.50R
STAPLES        FAIR     -11 -17  77 CALM      30.44S
WHEATON        FAIR      -9 -15  77 SW5       30.53S WCI -21
$$
  *****  WEATHER ELSEWHERE ACROSS MINNESOTA  *****

CITY           SKY/WX    TMP DP  RH WIND       PRES   REMARKS
DULUTH         FAIR     -10 -16  74 W7        30.37R WCI -25
6HR MIN TEMP: -11; 6HR MAX TEMP:  -2;

INTRNTL FALLS  FAIR     -16 -23  70 SW3       30.36S
6HR MIN TEMP: -18; 6HR MAX TEMP:  -8;

ELY            FAIR     -18 -24  76 CALM      30.34S
CLOQUET        FAIR     -11 -17  77 W6        30.40R WCI -25
BRAINERD       FAIR     -16 -20  82 CALM      30.45R
6HR MIN TEMP: -17; 6HR MAX TEMP:  -5;

HIBBING        FAIR     -22 -28  74 CALM      30.38R
6HR MIN TEMP: -22; 6HR MAX TEMP:  -5;

ALEXANDRIA     FAIR      -9 -17  68 W3        30.45S
6HR MIN TEMP:  -9; 6HR MAX TEMP:  -2;

SAINT CLOUD    FAIR      -8 -13  78 CALM      30.50R
6HR MIN TEMP:  -8; 6HR MAX TEMP:  -2;

MINNEAPOLIS    FAIR      -4 -10  75 SW5       30.53R WCI -15
6HR MIN TEMP:  -4; 6HR MAX TEMP:   1;

$$

  *****  WEATHER ACROSS SOUTH DAKOTA  *****

CITY           SKY/WX    TMP DP  RH WIND       PRES   REMARKS
SIOUX FALLS    FAIR     -11 -16  78 W3        30.52S
6HR MIN TEMP: -11; 6HR MAX TEMP:  -6;

BROOKINGS      NOT AVBL
WATERTOWN      FAIR     -13 -19  75 CALM      30.45S
6HR MIN TEMP: -16; 6HR MAX TEMP:  -6;

HURON          PTCLDY   -18 -21  87 CALM      30.53S
6HR MIN TEMP: -18; 6HR MAX TEMP: -10;

SISSETON         N/A     -4 -11  72 NW12      30.49S WCI -22
ABERDEEN       CLEAR    -18 -23  77 S5        30.51R WCI -31
6HR MIN TEMP: -18; 6HR MAX TEMP:  -6;

MITCHELL       CLEAR     -5 -10  79 SW5       30.55S WCI -16
PIERRE         PTCLDY    -8 -12  83 CALM      30.45S
6HR MIN TEMP:  -9; 6HR MAX TEMP:   1;

MOBRIDGE       PTCLDY    -9 -14  78 SE6       30.40F WCI -22
RAPID CITY     CLEAR     -3  -9  75 S9        30.24F WCI -19
6HR MIN TEMP: -10; 6HR MAX TEMP:  -3;

$$

  *****  SOME WEATHER IN NEARBY STATES *****

CITY           SKY/WX    TMP DP  RH WIND       PRES   REMARKS
GLASGOW MT     CLEAR      0  -7  72 SE12      30.17F WCI -17
6HR MIN TEMP:   0; 6HR MAX TEMP:   2;

GREAT FALLS MT PTCLDY    11   4  73 S6        29.91F WCI   1
6HR MIN TEMP:   9; 6HR MAX TEMP:  12;

CHEYENNE WY    CLOUDY     3  -2  79 S10       29.95F HAZE    WCI -12
6HR MIN TEMP:   2; 6HR MAX TEMP:   6; 6HR PCP:  0.01;

SCOTTSBLUFF NE CLOUDY     7  -1  70 SE14      30.20F WCI -10
6HR MIN TEMP:   7; 6HR MAX TEMP:   9; 6HR PCP: TRACE;

OMAHA NE       FAIR      -1  -5  82 CALM      30.61R
6HR MIN TEMP:  -3; 6HR MAX TEMP:   2;

DES MOINES IA  FAIR      -6 -12  75 W5        30.59R WCI -17
6HR MIN TEMP:  -6; 6HR MAX TEMP:  -1;

DAVENPORT IA   FAIR     -18 -23  77 W7        30.57R WCI -35
6HR MIN TEMP: -18; 6HR MAX TEMP: -11;

CHICAGO IL     FAIR      -1 -10  65 NW9       30.50R WCI -16
6HR MIN TEMP:  -2; 6HR MAX TEMP:   5;

EAU CLAIRE WI  FAIR      -8 -14  74 SW5       30.50R WCI -19
6HR MIN TEMP:  -9; 6HR MAX TEMP:  -2;

LA CROSSE WI   FAIR      -8 -14  74 S3        30.55R
6HR MIN TEMP:  -9; 6HR MAX TEMP:  -3;

$$

  *****  SOME NATIONAL WEATHER *****

CITY           SKY/WX    TMP DP  RH WIND       PRES   REMARKS
LA GUARDIA NY  CLOUDY    19   6  57 N10       30.33R WCI   7



USA.gov is the U.S. government's official web portal to all federal, state and local government web resources and services.